Directors' Transactions

See who's buying and selling shares in their own company

Market Index publishes the share transactions made by company directors of every ASX listed company.

  • Daily monitoring of over 2,000 companies
  • Every “Inside Trade” is disclosed

Why follow "Insider Activity"?

Monitoring directors' holdings is based on the theory that no one buys shares in a company expecting the share price to fall.

Directors' have a better understanding of their business and its future growth prospects. They also have a vested interest in its success.

By uncovering who’s buying and selling shares in their own company, Australian investors can extend their scope of research beyond fundamental and technical analysis.

About our data

  • Updated daily
  • Historical data from 2013
  • Ordinary shares & options
  • Issues, transfers & expiries
  • Direct & indirectly held investments

Read the Editor's Notes for background information on the data and its limitations.

Where is the data from?

Company directors' must notify the market of all share transactions they make in their own company.

The ASX requires them to lodge an “Appendix 3Y - Change of Director's Interest Notice” within 5 business days[1].

Market Index manually documents every Appendix 3Y each day.

The 100 Most Recent Transactions

Code Company Date Director Type Amount Price Value
DDR Dicker Data Limited 25/06/19 Vladimir Mitnovetski Buy +15,000 $4.817 $72,249
RZI RAIZ Invest Limited 25/06/19 David Gordon Buy +10,000 $0.43 $4,300
VMX Valmec Limited 24/06/19 Stephen Zurhaar Buy +157,737 $0.21 $33,124
TGF Tribeca Global 24/06/19 Benjamin (Ben) Cleary Buy +19,999 $2.011 $40,217
CDM Cadence Capital 24/06/19 Karl Siegling Buy +5,000 $0.788 $3,942
ORR Orecorp Limited 24/06/19 Craig Williams Expiry 700,000 $0.245 $171,500
ORR Orecorp Limited 24/06/19 Robert Rigo Expiry 500,000 $0.245 $122,500
ORR Orecorp Limited 24/06/19 Michael (Mike) Klessens Expiry 500,000 $0.245 $122,500
ORR Orecorp Limited 24/06/19 Matthew Yates Expiry 1,000,000 $0.245 $245,000
ORR Orecorp Limited 24/06/19 William Morrison Expiry 500,000 $0.245 $122,500
VMC Venus Metals Cor Limited 24/06/19 Matthew Hogan Buy +425,000 $0.14 $59,500
NVX Novonix Limited 24/06/19 Philip St Baker Buy +5,000,000 $0.30 $1,500,000
NVX Novonix Limited 24/06/19 Philip St Baker Exercise 5,000,000 $0.30 $1,500,000
N27 Northern Cobalt 24/06/19 Michael Schwarz Issued 101,334 $0.05 $5,066
N27 Northern Cobalt 24/06/19 Michael Schwarz Issued 50,668 $0.035 $1,773
N27 Northern Cobalt 24/06/19 Leonard (Len) Dean Issued 48,810 $0.035 $1,708
N27 Northern Cobalt 24/06/19 Leonard (Len) Dean Issued 97,620 $0.05 $4,881
N27 Northern Cobalt 24/06/19 Andrew Shearer Issued 100,000 $0.05 $5,000
N27 Northern Cobalt 24/06/19 Andrew Shearer Issued 50,000 $0.035 $1,750
PKD Parkd Limited 24/06/19 Robert Martin Buy +80,983 $0.09 $7,293
PRZ Parazero Limited 24/06/19 Christian Singleton Issued 200,000 $0.075 $15,000
PRZ Parazero Limited 24/06/19 Christian Singleton Issued 18,553 $0.097 $1,799
PRZ Parazero Limited 24/06/19 B.Gen. (ret.) Eden Attias Issued 37,106 $0.097 $3,599
PRZ Parazero Limited 24/06/19 B.Gen. (ret.) Eden Attias Issued 400,000 $0.075 $30,000
PRZ Parazero Limited 24/06/19 Dan Arazi Issued 25,956 $0.097 $2,517
PRZ Parazero Limited 24/06/19 Dan Arazi Issued 279,800 $0.075 $20,985
PRZ Parazero Limited 24/06/19 Stephen Gorenstein Issued 400,000 $0.075 $30,000
PRZ Parazero Limited 24/06/19 Stephen Gorenstein Issued 37,106 $0.097 $3,599
DDR Dicker Data Limited 24/06/19 Mary Stojcevski Buy +3,000 $4.93 $14,790
TNE Technology One 24/06/19 Sharon Doyle Buy +12,375 $8.113 $100,397
NMT Neometals Limited 24/06/19 Christopher Reed Buy +250,000 $0.21 $52,500
RZI RAIZ Invest Limited 24/06/19 George Lucas Buy +10,000 $0.43 $4,300
CYG Coventry Group 21/06/19 Robert Bulluss Buy +13,245 $0.875 $11,589
ELD Elders Limited 21/06/19 Ian Wilton Issued 1,734 $5.702 $9,887
ARQ ARQ Group Limited 21/06/19 Larry Bloch Sell -650,000 $1.40 $910,000
TGF Tribeca Global 21/06/19 Benjamin (Ben) Cleary Buy +25,000 $2.011 $50,275
TGF Tribeca Global 21/06/19 Bruce Loveday Buy +25,000 $2.002 $50,060
BBC BNK Bank Corp Limited 21/06/19 Peter Wallace Buy +20,000 $0.619 $12,382
CDM Cadence Capital 21/06/19 Karl Siegling Buy +5,000 $0.798 $3,992
DCC Digitalx Limited 21/06/19 Leigh Travers Transfer 2,561,111 $0.055 $140,861
GBG Gindalbie Metals Limited 21/06/19 Keith Jones Buy +1,590,513 $0.027 $42,943
OKJ Oakajee Corp Limited 21/06/19 Douglas Rose Buy +200,000 $0.05 $10,000
LIT Lithium Australia NL 21/06/19 Adrian Griffin Buy +192,347 $0.003 $577
FDV Frontier Digital Limited 21/06/19 Mark Licciardo Issued 100,000 $0.60 $60,000
IKE Ikegps Group Limited Foreign Exempt NZX 21/06/19 Glenn Milnes Buy +17,400 $0.53 $9,222
EAS Easton Investments 21/06/19 Kevin White Buy +10,000 $0.935 $9,350
EPW Erm Power Limited 21/06/19 Jon Stretch Sell -360,000 $1.885 $678,600
KAM K2 Asset MGMT Holdings 21/06/19 Campbell Neal Transfer 3,078,571 $0.049 $150,849
KAM K2 Asset MGMT Holdings 21/06/19 Robert Hand Transfer 3,078,571 $0.049 $150,849
KAM K2 Asset MGMT Holdings 21/06/19 Hollie Wight Transfer 3,078,571 $0.049 $150,849
VG1 Vgi Partners Global 21/06/19 David Jones Issued 57,901 $2.34 $135,488
VG1 Vgi Partners Global 21/06/19 Noel Whittaker Issued 45,031 $2.34 $105,372
VG1 Vgi Partners Global 21/06/19 Lawrence Myers Issued 15,528 $2.34 $36,335
VG1 Vgi Partners Global 21/06/19 Douglas Tynan Issued 46,768 $3.00 $140,304
VG1 Vgi Partners Global 21/06/19 Douglas Tynan Issued 229,597 $3.00 $688,791
VG1 Vgi Partners Global 21/06/19 Robert Luciano Issued 151,871 $2.34 $355,378
VG1 Vgi Partners Global 21/06/19 Robert Luciano Issued 911,568 $2.34 $2,133,069
BWR Blackwall Prop Trust Ordinary Units FP 20/06/19 Joseph (Seph) Glew Buy +112,405 $1.35 $151,746
CDM Cadence Capital 20/06/19 Karl Siegling Buy +5,000 $0.801 $4,005
FMG Fortescue Metals Group 20/06/19 Elizabeth Gaines Issued 208,113 $8.72 $1,814,745
GXY Galaxy Resources 20/06/19 Martin Rowley Buy +50,000 $1.295 $64,750
NUF Nufarm Limited 20/06/19 Francis (Frank) Ford Sell -11,400 $4.12 $46,968
NUF Nufarm Limited 20/06/19 Francis (Frank) Ford Buy +11,400 $4.12 $46,968
MP1 Megaport Limited 20/06/19 Simon Moore Sell -500,000 $6.10 $3,050,000
BAT Battery Minerals Limited 20/06/19 Jeremy Sinclair Issued 50,000,000 $0.016 $800,000
BAT Battery Minerals Limited 20/06/19 David Flanagan Issued 8,000,000 $0.016 $128,000
BAT Battery Minerals Limited 20/06/19 Jeffrey (Jeff) Dowling Issued 7,500,000 $0.016 $120,000
GBG Gindalbie Metals Limited 20/06/19 Keith Jones Buy +108,634 $0.027 $2,933
IBC Ironbark Capital Limited 20/06/19 Ross Finley Buy +37,111 $0.475 $17,627
INA Ingenia Group FP Ordinary/Units Stapled Securities 20/06/19 Valerie Lyons Buy +3,076 $3.23 $9,935
IPC Imperial Pacific Limited 20/06/19 Peter Murray Buy +3,512 $1.10 $3,863
SCP Sca Property Group FP Units Stapled Securities 20/06/19 Belinda Robson Buy +25,000 $2.60 $65,000
NEW NEW Energy Solar FP Ordinary/Units Stapled Securities 20/06/19 Jeffrey Whalan Buy +20,000 $1.29 $25,800
CIW Clime Investment 19/06/19 John Abernethy Buy +7,500 $0.473 $3,545
FNP Freedom Food Limited 19/06/19 Perry Gunner Issued 56,035 $4.80 $268,968
FNP Freedom Food Limited 19/06/19 Perry Gunner Issued 6,544 $4.80 $31,411
FNP Freedom Food Limited 19/06/19 Ronald Perich Issued 843,810 $4.80 $4,050,288
FNP Freedom Food Limited 19/06/19 Anthony(Tony) Perich Issued 843,810 $4.80 $4,050,288
FNP Freedom Food Limited 19/06/19 Rory Macleod Issued 69,344 $4.80 $332,851
FNP Freedom Food Limited 19/06/19 Michael Perich Issued 843,810 $4.80 $4,050,288
FNP Freedom Food Limited 19/06/19 Trevor Allen Issued 6,575 $4.80 $31,560
RBR RBR Group Limited 19/06/19 Ian Macpherson Buy +1,000,000 $0.019 $19,000
IMC Immuron Limited 19/06/19 Daniel Pollock Buy +75,000 $0.105 $7,875
IMC Immuron Limited 19/06/19 Peter Anastasiou Buy +500,000 $0.115 $57,500
APL Antipodes Global INV 19/06/19 Alexander (Alex) Ihlenfeldt Buy +54,054 $0.925 $49,999
PCG Pengana Capital 19/06/19 David Groves Buy +20,000 $1.602 $32,038
NVX Novonix Limited 19/06/19 Anthony (Tony) Bellas Transfer 2,750,000 $0.42 $1,155,000
PLX Pyrolyx AG Chess Depositary Interests 15:1 19/06/19 William (Bill) Best Buy +726 $0.899 $653
GBG Gindalbie Metals Limited 19/06/19 Keith Jones Buy +1,817,289 $0.027 $49,066
CZL Cons ZINC Limited 19/06/19 Bradley Marwood Expiry 2,000,000 $0.013 $26,000
CAE Cannindah Resources 19/06/19 Thomas Pickett Buy +448,043 $0.012 $5,437
CNL Celamin Holdings Limited 19/06/19 Tarecq Aldaoud Exercise 10,000 $0.05 $500
CNL Celamin Holdings Limited 19/06/19 Tarecq Aldaoud Buy +10,000 $0.065 $650
MWR MGM Wireless Limited 19/06/19 Mark Fortunatow Buy +250,000 $0.60 $150,000
MWR MGM Wireless Limited 19/06/19 Mark Fortunatow Exercise 250,000 $0.60 $150,000
WCN White Cliff Min Limited 19/06/19 Todd Hibberd Transfer 2,580,000 $0.005 $12,900
CZL Cons ZINC Limited 19/06/19 Angela Pankhurst Issued 50,000 $0.013 $650
LIT Lithium Australia NL 19/06/19 Adrian Griffin Buy +1,000,000 $0.002 $2,000
ASN Anson Resources Limited 19/06/19 Bruce Richardson Exercise 2,400,000 $0.055 $132,000
ASN Anson Resources Limited 19/06/19 Bruce Richardson Buy +2,400,000 $0.055 $132,000
 

Looking for older transactions?

Use the “Search Box” (top right of this website) to find the individual company page of any ASX listed company. All historical director transactions for that company will be listed.

 

Editor's Notes

Why tracking directors' transactions isn't simple.

There’s no centralised database of Directors' Transactions for ASX companies.

The market simply receives an endless stream of 3Y Announcement PDFs. The data in these PDFs must be manually compiled.

To complicate the matter, a director's shareholding can be spread between multiple entities (both directly and indirectly owned) and contain a convoluted mess of ordinary shares, options and performance rights. Throw in a change of company name or a typo by the director themselves and you can see the difficulties we encounter.

We do our best to accurately document and decipher these cryptic paper trails for you, but we can’t guarantee they'll be error free. You can cross check any transaction we list with the corresponding ASX announcement. These are usually released within 7 days of the transaction date.